Simultaneous Nadir Overpasses (SNOs) Predictions

Prediction of SNOs between GOES-15 and NOAA-19 Satellite Orbit:

Table of predicted SNOs for the next 14.0 days since TLE Epoch: 8/22/2025
Index Date Time (GOES-15) GOES-15 Lat,Lon NOAA-19 Lat,Lon Distance(km) Time Diff (sec)
1 08/22/2025 17:56:48 -0.31, 61.78 -0.77, 59.81 224.55 80
2 08/23/2025 17:41:30 -0.29, 61.79 -0.02, 62.87 123.56 80
3 08/24/2025 17:28:50 -0.27, 61.81 0.68, 65.94 471.76 80
4 08/26/2025 06:02:34 0.34, 61.72 1.10, 58.49 369.41 80
5 08/27/2025 05:49:54 0.33, 61.74 0.38, 61.56 21.20 80
6 08/28/2025 05:34:35 0.31, 61.76 -0.33, 64.63 326.87 80
7 08/30/2025 17:55:54 -0.37, 61.93 -0.76, 60.19 198.56 80
8 08/31/2025 17:40:34 -0.36, 61.96 -0.05, 63.26 148.83 80
9 09/01/2025 17:27:55 -0.34, 61.99 0.65, 66.33 496.17 80
10 09/03/2025 06:01:37 0.42, 61.92 1.08, 58.88 346.26 80
11 09/04/2025 05:48:56 0.40, 61.95 0.43, 61.96 3.06 80
